Theta_e
337 340 342 341 343 345 335 335 333 334 335 337 335 333 333 333 336 334 336 342 340 338 335 333 335 328 327 328 329 329 329 329 330 335 335 331 329 329 329 329 330 330 331 331 332 333 335 327 321
342 341 342 341 340 335 332 334 333 334 336 336 335 335 336 334 334 336 337 338 340 340 335 335 338 337 338 328 327 329 330 330 331 336 337 333 332 332 332 331 331 331 330 330 330 329 332 337 337
340 341 339 342 344 328 330 333 333 334 337 337 339 337 334 335 335 336 338 340 340 337 338 338 339 334 335 337 331 333 336 335 334 335 337 335 334 333 333 332 329 326 324 324 327 328 328 329 332
337 338 340 343 342 335 331 332 334 335 335 337 337 338 338 338 338 340 342 343 341 341 341 339 339 335 336 336 334 335 337 338 337 336 336 335 333 330 328 327 325 324 322 320 323 330 330 330 331
334 336 341 343 341 338 336 337 339 341 340 337 336 337 338 339 340 340 342 341 338 340 340 336 339 335 336 338 335 332 333 335 336 336 335 332 328 326 325 322 320 317 313 315 318 324 329 330 329
335 336 341 342 341 339 337 340 341 342 340 339 339 337 339 341 342 341 339 333 330 330 338 332 337 333 334 335 332 330 330 334 335 332 328 326 328 325 322 319 318 316 310 309 310 312 315 321 326
335 337 341 340 341 341 338 341 342 341 341 340 341 343 342 341 341 337 335 331 328 326 325 326 329 332 337 335 332 331 329 328 328 327 326 324 327 325 319 320 320 319 318 318 317 320 321 323 320
336 338 342 340 338 342 338 340 340 341 340 339 342 342 341 342 335 333 329 327 324 323 322 324 328 332 338 333 332 329 328 327 324 320 325 323 322 320 319 320 321 320 321 321 320 320 320 322 325
335 339 342 341 340 339 339 340 341 338 340 339 338 341 341 338 332 325 324 324 323 323 324 325 325 331 338 329 330 328 327 326 324 319 316 320 321 320 322 321 322 321 322 322 321 321 321 318 323
336 336 340 338 338 338 340 340 341 342 341 341 341 340 335 331 327 325 324 323 323 323 325 325 323 330 329 328 327 326 326 325 324 318 315 321 321 320 322 321 322 321 321 320 320 320 321 320 318
337 335 335 338 338 339 339 341 341 341 342 341 341 336 330 326 325 325 323 324 323 322 323 323 319 329 329 327 327 326 325 323 322 321 316 321 318 319 321 321 320 320 319 320 320 320 320 319 321
335 338 338 339 339 339 339 341 342 342 342 341 339 332 327 327 326 326 324 323 322 320 321 321 317 323 328 327 326 325 323 322 322 322 315 316 313 312 320 321 320 319 319 320 321 320 320 320 321
335 337 338 339 341 341 342 342 342 342 342 340 335 330 329 328 328 328 327 325 319 315 320 320 319 321 320 325 324 323 322 322 322 321 321 316 314 317 320 320 319 319 321 322 321 320 320 320 320
338 337 337 338 341 342 341 342 342 343 342 340 334 331 329 329 329 329 328 324 322 315 314 321 321 316 320 323 323 321 322 322 321 322 321 318 318 317 321 320 318 320 321 320 319 315 319 320 320
336 336 336 337 342 341 342 342 344 343 342 341 337 332 331 330 330 329 327 325 323 315 313 318 322 320 317 322 322 319 321 321 322 322 320 316 317 318 319 320 317 319 320 319 317 311 316 320 320
339 339 344 338 341 341 336 344 344 343 343 342 339 334 333 332 332 332 329 328 327 321 313 312 313 318 320 321 322 322 320 321 322 322 321 313 316 314 318 319 317 318 319 318 316 311 315 319 317
338 345 344 342 340 338 338 341 343 342 343 341 340 338 334 333 333 332 331 331 328 325 319 314 311 317 321 322 322 321 321 322 322 322 319 316 315 313 314 317 316 316 317 317 312 311 315 316 316
339 343 341 343 339 338 339 341 342 342 342 341 341 340 336 335 334 332 331 331 328 328 327 315 311 318 320 321 322 321 322 322 322 321 320 320 314 312 312 314 312 318 317 316 313 311 315 315 314
337 335 339 339 336 334 336 344 344 342 342 342 341 341 340 338 336 333 332 332 331 330 331 323 311 315 320 319 319 319 321 321 321 321 321 320 316 312 311 314 314 316 316 316 311 311 311 311 312
333 334 333 334 336 333 337 342 343 341 341 341 341 341 342 340 337 335 333 332 332 331 332 329 313 310 315 320 320 322 322 322 321 321 321 319 319 318 317 312 315 315 316 314 310 312 312 312 313
334 334 334 340 337 337 337 337 345 341 340 340 341 341 341 339 338 337 334 334 333 333 332 331 318 312 313 321 319 323 323 323 322 321 320 319 320 319 318 315 314 313 314 314 311 311 312 312 311
335 334 335 335 340 341 339 338 345 342 341 340 339 340 339 339 340 339 336 335 334 334 333 331 325 314 312 314 318 321 322 322 323 322 320 320 320 319 318 318 312 314 313 314 314 313 312 311 313
334 335 335 336 338 339 340 338 344 341 342 339 339 340 340 339 340 340 337 336 335 334 333 329 326 318 314 312 313 318 319 321 322 319 322 319 320 319 318 318 313 314 313 313 314 314 312 312 312
334 338 339 337 338 341 340 339 344 342 342 340 340 340 340 339 340 340 338 336 336 335 333 328 327 323 317 314 315 315 313 317 319 321 321 319 319 320 319 318 313 314 316 314 315 315 314 313 312
333 335 337 337 345 346 340 341 339 336 334 333 340 341 339 339 339 340 338 336 336 335 331 328 327 324 321 318 318 319 314 321 322 324 322 319 319 320 319 318 315 314 316 314 314 315 314 313 313
335 335 335 338 341 337 339 342 339 334 334 334 335 341 338 336 339 339 338 336 335 333 332 329 327 324 323 321 320 320 317 317 321 322 321 318 319 320 319 318 317 316 315 316 315 314 314 313 314
336 334 335 338 336 337 336 341 335 335 336 335 335 335 337 336 338 337 335 335 334 334 333 331 328 325 323 322 320 320 320 319 317 318 319 319 318 318 318 317 318 316 316 315 315 315 314 314 314
333 334 338 337 337 339 338 339 336 336 338 335 336 335 336 337 338 337 336 335 335 334 333 332 328 324 323 323 321 321 322 321 321 321 320 320 320 318 319 318 317 318 316 315 315 315 315 314 314
334 339 338 339 336 340 342 336 335 334 334 334 333 335 335 333 338 338 337 336 335 333 333 332 328 325 324 323 323 322 321 321 320 321 321 321 320 320 319 319 318 317 318 316 315 315 315 314 314
335 336 336 340 339 337 338 336 337 334 334 335 335 335 335 335 337 338 337 336 334 334 332 332 329 327 323 324 323 323 322 321 322 322 322 321 322 320 318 319 319 318 317 317 317 317 317 316 315
Wind_Speed
10 13 16 6 3 1 3 9 15 12 15 30 33 24 18 21 7 10 15 13 6 4 7 14 11 9 8 7 7 7 7 7 8 8 9 8 9 10 11 11 12 13 13 13 12 12 13 14 14
16 23 14 7 2 1 2 10 14 15 25 31 32 23 27 20 23 17 14 4 6 5 7 17 11 10 9 8 7 8 8 8 8 8 8 9 10 11 12 12 13 13 14 15 15 15 14 13 14
16 12 8 5 2 4 5 7 13 24 29 27 15 22 10 14 14 11 11 7 2 6 7 8 12 14 10 7 7 8 8 8 8 8 9 10 12 13 14 14 15 16 17 16 15 16 16 15 15
13 21 9 4 9 9 6 10 28 28 30 30 19 12 25 18 15 16 12 10 11 13 13 11 13 14 13 9 10 10 10 9 9 9 10 11 12 13 14 15 16 17 17 16 15 14 14 13 13
34 18 6 9 9 8 14 24 29 24 19 26 20 13 19 13 15 15 12 15 17 16 13 14 12 13 11 9 12 12 10 8 7 8 9 10 11 14 17 18 19 23 21 17 14 14 13 12 12
12 10 3 4 13 9 11 35 40 29 23 22 16 19 11 14 15 12 16 19 21 18 11 14 12 10 10 10 14 13 11 7 6 7 9 10 11 17 19 22 25 25 20 16 14 14 14 13 13
14 8 6 10 7 4 10 31 21 21 22 6 14 12 16 9 11 16 12 10 9 8 14 17 11 10 9 13 15 15 15 6 5 6 8 12 9 15 19 20 23 21 23 22 20 16 16 13 10
16 5 6 5 9 0 14 17 27 20 7 25 19 3 8 10 18 12 9 6 9 8 4 1 12 15 5 12 14 14 14 14 16 10 1 10 10 11 9 15 19 22 22 22 19 19 13 12 9
12 4 2 4 5 4 23 12 18 24 19 8 9 17 13 14 13 18 15 14 10 8 8 7 10 13 6 15 12 12 15 14 15 15 3 5 7 7 11 11 15 20 17 17 15 15 19 15 8
9 5 12 20 13 13 23 24 25 19 22 17 16 17 16 10 9 11 13 12 10 7 8 9 8 9 15 12 9 8 9 12 15 15 7 4 7 3 6 7 12 13 13 14 14 14 17 19 13
3 5 8 10 22 29 22 23 24 21 13 21 21 19 14 14 14 13 11 9 7 6 7 9 6 9 8 6 1 3 6 9 13 17 9 6 11 5 5 11 11 15 18 14 15 14 19 16 11
10 19 21 20 31 26 16 23 19 21 15 21 19 18 16 11 9 8 6 4 4 5 5 8 8 8 8 5 2 3 8 7 11 16 14 11 15 12 9 12 15 17 12 17 14 14 12 13 13
9 16 20 18 29 26 24 17 15 19 19 19 18 17 12 12 13 10 4 6 7 8 5 10 10 6 5 5 8 5 8 7 10 13 16 15 17 12 11 13 18 11 12 13 15 18 11 10 9
8 14 17 3 15 20 17 20 14 17 18 18 20 15 17 14 14 10 2 4 8 12 8 6 11 5 8 9 5 5 8 4 7 11 15 14 17 10 11 13 13 13 13 15 20 21 11 6 8
22 8 10 6 15 10 23 9 10 22 20 19 20 21 14 19 12 5 3 2 7 12 11 5 7 8 8 8 6 8 7 6 5 9 14 10 15 10 11 14 12 13 14 20 19 16 6 6 7
7 7 6 7 11 7 5 3 19 23 21 21 20 23 18 16 12 7 2 1 4 10 11 9 3 3 12 9 11 10 6 7 3 9 16 13 14 13 9 13 14 10 14 19 22 19 9 6 12
6 3 6 11 14 7 6 4 22 25 23 23 20 21 21 19 15 10 6 4 3 8 11 10 8 8 11 8 4 6 8 5 5 11 17 17 15 16 11 10 15 9 12 18 26 18 10 11 14
6 7 10 11 8 7 13 8 19 27 24 23 26 22 23 23 21 14 15 9 2 7 11 11 9 8 9 4 5 3 3 3 5 13 18 19 18 16 17 15 17 7 16 21 28 18 6 12 17
8 9 13 15 12 2 2 8 19 26 24 21 25 29 26 28 25 21 18 10 2 4 9 11 9 4 4 3 5 3 3 5 5 11 12 18 19 18 18 17 16 10 17 22 22 18 16 15 15
2 3 5 7 4 5 7 3 16 25 23 20 32 27 25 24 30 25 20 11 6 4 7 9 9 4 2 3 6 6 5 3 4 9 11 16 16 19 21 19 16 14 16 23 22 20 18 17 17
3 3 6 11 5 4 5 9 18 17 22 24 23 23 24 33 32 26 24 17 11 8 7 7 7 4 4 3 3 4 5 1 3 5 10 13 13 17 20 21 14 15 16 21 23 23 21 20 19
2 2 5 17 7 4 5 5 2 13 14 19 27 28 24 32 31 26 26 22 15 14 7 7 7 6 2 4 5 9 5 4 1 5 5 7 10 12 16 21 15 15 15 18 18 22 19 16 16
3 8 13 9 5 3 1 3 14 20 8 11 22 30 32 35 35 31 31 24 18 16 10 6 5 6 3 2 4 4 4 7 5 4 3 5 6 9 14 19 15 13 17 14 16 19 23 17 14
4 6 4 4 4 3 6 6 5 6 11 11 18 28 33 35 34 32 29 27 23 19 13 7 4 7 5 3 0 1 1 4 6 3 1 2 7 9 15 18 13 12 12 14 14 13 17 19 15
7 7 4 5 1 5 2 5 9 11 6 6 16 28 24 32 34 32 34 32 29 23 13 8 7 5 6 4 2 3 1 3 1 3 6 7 3 9 15 16 16 11 9 12 11 11 13 16 17
2 6 5 4 3 5 3 3 4 8 11 16 10 24 22 23 32 34 36 33 30 19 15 10 9 7 7 5 4 6 3 3 5 6 10 5 6 6 11 15 15 14 8 10 13 14 10 14 15
1 5 5 2 4 4 3 5 7 17 19 11 10 2 26 24 32 35 33 32 24 18 19 13 13 9 7 6 8 7 5 4 5 5 4 6 8 9 10 9 13 14 10 10 12 13 13 13 13
7 2 11 8 4 4 6 3 5 7 13 11 7 11 4 28 37 35 34 31 26 19 20 17 13 10 8 9 7 6 6 8 7 10 9 8 10 13 9 8 10 12 11 12 13 14 13 14 16
7 4 4 4 3 0 2 6 6 7 6 6 8 2 21 42 37 39 36 31 27 20 20 19 16 10 9 9 8 8 9 11 10 11 12 11 12 13 12 10 10 11 13 11 14 14 14 15 17
6 9 8 4 4 3 2 6 6 5 9 5 10 15 26 43 15 26 33 34 28 21 21 20 15 6 5 9 9 10 11 12 12 11 12 13 15 15 13 13 12 12 12 14 15 18 17 17 18
Wind_Direction
26 10 348 318 23 44 66 73 92 82 69 75 72 78 74 58 73 118 97 105 82 48 70 18 356 341 329 328 334 333 332 338 344 345 344 348 348 347 347 345 345 344 340 336 330 317 307 297 288
50 30 4 307 351 254 84 101 103 109 113 95 83 82 67 85 91 110 114 134 172 103 344 337 358 348 329 323 333 331 334 335 335 332 336 342 344 343 340 335 332 330 324 318 315 313 310 304 297
72 50 24 7 21 125 114 117 125 126 104 95 74 64 73 98 88 112 140 148 272 14 51 33 29 28 14 351 343 336 333 326 327 334 337 340 339 339 337 333 330 328 325 323 320 311 306 306 303
70 73 46 30 296 52 96 108 110 95 88 94 99 66 78 100 94 92 77 79 55 32 38 39 23 35 21 14 11 1 344 331 332 341 341 344 348 351 346 339 338 333 327 326 325 325 326 318 308
57 61 37 334 291 1 50 72 81 78 78 79 83 103 104 106 99 90 73 51 44 52 53 30 25 27 21 18 15 1 341 338 339 342 349 2 3 1 355 348 349 343 333 322 322 321 323 326 330
65 68 40 343 338 344 75 84 89 84 83 93 108 118 122 117 113 101 102 68 57 50 46 34 22 17 11 27 20 17 6 356 1 24 33 20 4 5 359 358 2 357 3 360 344 330 321 317 314
115 109 194 264 251 272 89 84 99 106 127 144 123 114 122 122 117 109 98 85 56 57 49 35 27 14 11 22 31 22 16 23 44 52 42 19 4 6 359 356 360 5 18 19 23 28 28 14 353
124 116 141 214 233 80 104 96 117 105 72 132 135 167 133 125 99 88 73 65 69 45 356 34 32 18 11 24 32 11 19 12 14 7 339 47 30 17 6 360 355 7 12 8 13 13 4 10 4
125 88 119 277 198 142 114 119 105 118 151 193 144 125 106 110 103 79 64 52 40 45 12 357 150 62 119 45 51 35 31 4 353 7 6 64 24 1 32 11 10 4 10 360 357 8 345 340 319
116 131 174 213 199 120 114 112 142 139 134 128 121 112 103 85 61 80 65 53 35 40 15 351 140 119 103 66 61 55 15 1 348 5 53 62 22 42 38 10 12 348 332 334 351 356 345 343 25
165 176 99 144 121 111 119 122 130 129 129 146 141 117 104 106 99 92 87 62 43 46 20 353 30 161 128 129 53 317 16 356 349 9 57 24 34 40 28 27 353 335 342 350 357 345 343 344 10
84 68 81 84 107 99 107 142 115 119 141 130 123 122 123 117 107 99 102 87 24 47 13 355 27 127 145 147 158 36 34 30 2 2 21 24 24 28 47 24 350 346 27 12 354 346 4 3 358
20 84 72 90 119 121 122 115 114 113 113 120 126 126 123 125 128 112 87 28 25 41 48 13 33 56 127 161 79 71 48 40 3 360 12 15 22 48 35 16 -0 43 11 2 340 334 339 355 360
1 26 28 62 112 127 121 128 132 142 139 143 146 136 138 137 139 132 131 32 26 38 53 33 12 37 89 90 73 80 76 44 3 4 7 14 10 41 35 16 19 21 348 352 338 331 309 337 348
45 22 7 329 136 134 144 167 139 155 155 161 155 151 150 154 167 192 171 64 28 32 40 77 16 31 52 119 63 46 73 39 21 349 357 11 6 46 24 12 17 16 350 344 347 352 311 268 323
55 67 353 284 142 179 149 188 149 166 174 177 170 166 165 177 189 205 211 136 40 27 23 44 60 53 66 57 59 32 58 36 332 338 351 9 7 28 14 9 12 4 352 343 349 354 1 347 338
3 102 233 295 225 167 188 180 165 178 190 175 181 174 174 170 177 188 191 225 20 21 19 28 42 88 85 61 74 17 41 31 343 340 354 12 8 14 21 359 7 350 344 351 356 2 6 353 343
173 166 222 214 191 186 193 209 164 180 200 177 182 189 184 186 194 175 189 206 314 10 10 25 37 89 102 87 121 102 35 24 333 343 350 5 8 13 21 21 14 6 356 356 351 3 14 339 353
173 195 189 213 230 188 333 163 174 178 205 196 182 194 203 196 194 172 191 223 263 349 358 9 30 91 97 162 185 171 178 34 343 342 345 355 8 15 17 24 27 11 6 353 360 12 23 9 5
23 40 288 323 196 95 21 196 185 181 200 200 176 198 206 194 179 177 189 203 232 298 322 354 11 49 141 127 93 122 101 60 7 343 348 348 5 11 11 11 21 9 10 2 10 18 23 24 27
267 272 54 71 16 66 14 326 167 194 193 198 191 200 200 183 179 180 189 194 218 228 287 327 353 23 99 153 119 145 125 186 325 315 335 358 347 359 2 2 9 3 11 11 25 26 20 22 26
253 208 84 43 56 307 31 309 338 173 198 202 198 198 195 186 186 188 187 189 207 223 251 301 336 352 67 209 143 172 160 186 91 302 352 351 321 343 351 352 359 11 11 19 19 23 18 20 14
233 74 99 94 121 79 108 114 336 334 219 208 198 200 202 191 190 189 187 192 198 213 240 279 319 338 359 174 205 226 216 215 243 53 43 0 337 332 342 344 353 16 20 16 12 17 19 15 19
67 105 33 65 99 19 235 121 238 213 235 227 201 206 205 192 191 189 191 188 196 204 231 254 304 321 343 346 266 280 67 108 155 79 8 165 356 337 334 337 353 10 21 15 5 8 13 11 2
45 48 352 1 336 243 99 61 234 269 247 30 190 198 201 188 190 186 189 184 188 199 217 238 268 301 321 323 309 301 295 131 168 240 271 271 237 331 323 337 349 1 6 353 350 355 2 358 6
112 147 147 240 312 262 189 216 229 280 46 33 360 199 182 174 185 186 186 184 184 198 216 231 247 268 294 296 286 286 292 228 257 273 295 247 262 302 321 330 342 349 344 338 355 357 354 347 346
106 24 178 151 311 16 156 307 300 63 64 63 306 353 184 188 184 177 180 184 190 202 218 232 230 245 268 285 284 292 295 325 265 311 316 334 330 300 300 308 318 341 338 327 332 345 346 339 338
111 36 21 350 357 315 333 298 250 134 168 219 241 258 199 206 182 184 188 184 198 203 215 225 222 241 265 274 295 301 301 309 311 315 326 320 322 332 312 324 314 315 336 323 321 327 334 333 331
25 42 84 191 215 158 275 265 231 190 171 156 44 59 20 356 179 184 179 186 188 198 217 216 212 228 250 281 292 286 286 298 297 296 309 309 314 317 311 308 315 313 304 305 307 318 322 324 322
143 177 156 161 255 206 195 293 23 112 123 95 344 45 15 14 303 171 183 185 191 201 211 215 210 225 271 280 276 282 293 310 320 320 317 304 303 310 305 311 308 311 304 306 293 293 299 302 313